[Iaude] MPEC D27: 2024 CG8 [a=2.83,e=0.60,i=5.1,H=21.0]
    mpec at cfa.harvard.edu 
    mpec at cfa.harvard.edu
       
    Fri Feb 16 21:55:32 EST 2024
    
    
  
M.P.E.C. 2024-D27                             Issued 2024 February 17, 02:54 UT
     The Minor Planet Electronic Circulars contain information on unusual
         minor planets, routine data on comets and natural satellites,
         and occasional editorial announcements.  They are published
    on behalf of Division F of the International Astronomical Union by the
          Minor Planet Center, Smithsonian Astrophysical Observatory,
                          Cambridge, MA 02138, U.S.A.
			  
             Prepared using the Tamkin Foundation Computer Network
                              MPC at CFA.HARVARD.EDU
            URL https://www.minorplanetcenter.net/    ISSN 1523-6714
                                    2024 CG8                                    
Observations:
     K24C08G  C2024 01 21.64359712 31 43.588+06 13 01.15         22.26GVED027F51
     K24C08G  C2024 01 21.65534812 31 45.935+06 12 53.41         22.22GVED027F51
     K24C08G*1C2024 02 05.45871513 28 03.727+03 22 57.36         21.13GVED027G96
     K24C08G 1C2024 02 05.46391213 28 05.059+03 22 52.50         22.27GVED027G96
     K24C08G 1C2024 02 05.46910813 28 06.316+03 22 48.94         21.52GVED027G96
     K24C08G 1C2024 02 05.47431713 28 07.590+03 22 45.44         21.73GVED027G96
     K24C08G  C2024 02 05.50898813 28 16.022+03 22 18.73         21.0 GVED027H01
     K24C08G  C2024 02 05.51224213 28 16.831+03 22 16.17         21.3 GVED027H01
     K24C08G KC2024 02 05.51390813 28 17.296+03 22 15.46         21.73GVED027V06
     K24C08G KC2024 02 05.51742013 28 18.160+03 22 12.79         21.51GVED027V06
     K24C08G KC2024 02 05.52092913 28 19.006+03 22 09.95         21.57GVED027V06
     K24C08G  C2024 02 05.52279213 28 19.411+03 22 08.40         21.2 GVED027H01
     K24C08G KC2024 02 05.52443713 28 19.841+03 22 07.68         21.43GVED027V06
     K24C08G  C2024 02 05.52948013 28 21.052+03 22 03.30         21.0 GVED027H01
     K24C08G  C2024 02 14.59462614 08 25.861+01 24 03.48         21.80wXED027F51
     K24C08G  C2024 02 14.60541414 08 28.786+01 23 54.59         21.53wXED027F51
     K24C08G  C2024 02 14.61613414 08 31.687+01 23 45.79         21.71wXED027F51
     K24C08G  C2024 02 14.62685814 08 34.600+01 23 37.05         21.23wXED027F51
     K24C08G pC2024 02 17.06625314 20 04.10 +00 49 53.7          21.9 GVED027L01
     K24C08G KC2024 02 17.06877514 20 04.79 +00 49 51.6          21.3 GVED027L01
     K24C08G KC2024 02 17.07130014 20 05.51 +00 49 49.6          21.3 GVED027L01
     K24C08G KC2024 02 17.07403514 20 06.26 +00 49 47.2          21.3 GVED027L01
Observer details:
F51 Pan-STARRS 1, Haleakala.  Observers J. Herman, T. Lowe, P. Minguez, A.
    Schultz, I. Smith.  Measurers K. Chambers, T. de Boer, J. Fairlamb, H.
    Gao, M. Huber, C.-C. Lin, E. Magnier, Y. Ramanjooloo, R. Wainscoat, R.
    Weryk.  1.8-m Ritchey-Chretien + CCD.
G96 Mt. Lemmon Survey.  Observers V. F. Carvajal, D. Rankin.  Measurers T.
    Beuden, V. F. Carvajal, D. Fay, J. B. Fazekas, D. C. Fuls, A. R. Gibbs, A.
    D. Grauer, H. Groeller, J. K. Hogan, R. A. Kowalski, S. M. Larson, G. J.
    Leonard, D. Rankin, R. L. Seaman, F. C. Shelly, K. W. Wierzchos.  1.5-m
    reflector + 10K CCD.
H01 Magdalena Ridge Observatory, Socorro.  Observers W. H. Ryan, E. V. Ryan.
    Measurer W. H. Ryan.  2.4-m f/8.9 Ritchey-Chretien + CCD.
L01 Visnjan Observatory, Tican.  Observer K. Korlevic.  1.0-m f/2.9 reflector
    + CCD.
V06 Catalina Sky Survey-Kuiper.  Observer H. Groeller.  Measurers T. Beuden,
    V. F. Carvajal, D. Fay, J. B. Fazekas, D. C. Fuls, A. R. Gibbs, A. D.
    Grauer, H. Groeller, J. K. Hogan, R. A. Kowalski, S. M. Larson, G. J.
    Leonard, D. Rankin, R. L. Seaman, F. C. Shelly, K. W. Wierzchos.  1.55-m
    reflector + 1K CCD.
Orbital elements:
2024 CG8                                                 Earth MOID = 0.1580 AU
Epoch 2024 Mar. 31.0 TT = JDT 2460400.5                 Veres                   
M   0.85891              (2000.0)            P               Q                  
n   0.20657519     Peri.  111.14128     -0.91326803     +0.39754508             
a   2.8341138      Node    92.37276     -0.39891338     -0.82858886             
e   0.5993009      Incl.    5.10348     -0.08252037     -0.39420604             
P   4.77           H   21.08          G   0.15           U   8                  
Residuals in seconds of arc
240121 F51  0.1+  0.1+    240205 V06  0.1+  0.0     240214 F51  0.1-  0.2-
240121 F51  0.1-  0.1-    240205 V06  0.2+  0.0     240214 F51  0.0   0.2-
240205 G96  0.6-  0.8+    240205 V06  0.0   0.3-    240217 L01  0.2+  0.3+
240205 G96  0.2+  0.2-    240205 H01  0.0   0.0     240217 L01  0.0   0.3+
240205 G96  0.0   0.1+    240205 V06  0.4-  0.1+    240217 L01  0.2+  0.4+
240205 G96  0.0   0.5+    240205 H01  0.1+  0.1-    240217 L01  0.1-  0.3+
240205 H01  0.0   0.0     240214 F51  0.0   0.1-
240205 H01  0.1+  0.1-    240214 F51  0.0   0.2-
Ephemeris:
2024 CG8                 a,e,i = 2.83, 0.60, 5                   q = 1.1356
Date    TT    R. A. (2000) Decl.     Delta      r    Elong.  Phase     V
2024 01 18    12 19 28.1 +06 51 05   0.6726  1.4072   115.0    39.3    22.5
...
2024 02 02    13 13 54.4 +04 05 14   0.5342  1.3125   116.3    42.3    22.0
...
2024 02 10    13 47 35.2 +02 25 22   0.4763  1.2677   115.6    44.6    21.7
...
2024 02 16    14 15 00.2 +01 04 55   0.4405  1.2375   114.6    46.6    21.5
2024 02 17    14 19 44.4 +00 51 04   0.4352  1.2327   114.3    46.9    21.5
2024 02 18    14 24 31.4 +00 37 05   0.4301  1.2281   114.1    47.3    21.5
...
2024 02 24    14 54 03.4 -00 48 53   0.4034  1.2023   112.4    49.6    21.4
...
2024 03 03    15 34 57.0 -02 46 20   0.3779  1.1737   109.7    52.7    21.3
...
2024 03 18    16 50 29.2 -06 14 45   0.3576  1.1410   104.9    57.4    21.2
M. P. C. Staff               (C) Copyright 2024 MPC           M.P.E.C. 2024-D27
    
    
More information about the Iaude
mailing list